Probability
0 0 0 0 0 0 0 0 0 0 0 0 0 0 0 0 0 0 0 0 0 0 0 0 0 0 0 0 0 0 0 0 0 0 0 0 0 0 0 0 0 0 0 0
0 0 0 0 0 0 0 0 0 0 0 0 0 0 0 0 0 0 0 0 0 0 0 0 0 0 0 0 0 0 0 0 0 0 0 0 0 0 0 0 0 0 0 0
0 0 0 0 0 0 0 0 0 0 0 0 0 0 0 0 0 0 0 0 0 0 0 0 0 0 0 0 0 0 0 0 0 0 0 0 0 0 0 0 0 0 0 0
0 0 0 0 0 0 0 0 0 0 0 0 0 0 0 0 0 0 0 0 0 0 0 0 0 0 0 0 0 0 0 0 0 0 0 0 0 0 0 0 0 0 0 0
0 0 0 0 0 0 0 0 0 0 0 0 0 0 0 0 0 0 0 0 0 0 0 0 0 0 0 0 0 0 0 0 0 0 0 0 0 0 0 0 0 0 0 0
0 0 0 0 0 0 0 0 0 0 0 0 0 0 0 0 0 0 0 0 0 0 0 0 0 0 0 0 0 0 0 0 0 0 0 0 0 0 0 0 0 0 0 0
0 0 0 0 0 0 0 0 0 0 0 0 0 0 0 0 0 0 0 0 0 0 0 0 0 0 0 0 0 0 0 0 0 0 0 0 0 0 0 0 0 0 0 0
0 0 0 0 0 0 0 0 0 0 0 0 0 0 0 0 0 0 0 0 0 0 0 0 0 0 0 0 0 0 0 0 0 0 0 0 0 0 0 0 0 0 0 0
0 0 0 0 0 0 0 0 0 0 0 0 0 0 0 0 0 0 0 0 0 0 0 0 0 0 0 0 0 0 0 0 0 0 0 0 0 0 0 0 0 0 0 0
0 0 0 0 0 0 0 0 0 0 0 0 0 0 0 0 0 0 0 0 0 0 0 0 0 0 0 0 0 0 0 0 0 0 0 0 0 0 0 0 0 0 0 0
0 0 0 0 0 0 0 0 0 0 0 0 0 0 0 0 0 0 0 0 0 0 0 0 0 0 0 0 0 0 0 0 0 0 0 0 0 0 0 0 0 0 0 0
0 0 0 0 0 0 0 0 0 0 0 0 0 0 0 0 0 0 0 0 0 0 0 0 0 0 0 0 0 0 0 0 0 0 0 0 0 0 0 0 0 0 0 0
0 0 0 0 0 0 0 0 0 0 0 0 0 0 0 0 0 0 0 0 0 0 0 0 0 0 0 0 0 0 0 0 0 0 0 0 0 0 0 0 0 0 0 0
0 0 0 0 0 0 0 0 0 0 0 0 0 0 0 0 0 0 0 0 0 0 0 0 0 0 0 0 0 0 0 0 0 0 0 0 0 0 0 0 0 0 0 0
0 0 0 0 0 0 0 0 0 0 0 0 0 0 0 0 0 0 0 0 0 0 0 0 0 0 0 0 0 0 0 0 0 0 0 0 0 0 0 0 0 0 0 0
0 0 0 0 0 0 0 0 0 0 0 0 0 0 0 0 0 0 0 0 0 0 0 0 0 0 0 0 0 0 0 0 0 0 0 0 0 0 0 0 0 0 0 0
0 0 0 0 0 0 0 0 0 0 0 0 0 0 0 0 0 0 0 0 0 0 0 0 0 0 0 0 0 0 0 0 0 0 0 0 0 0 0 0 0 0 0 0
0 0 0 0 0 0 0 0 0 0 0 0 0 0 0 0 0 0 0 0 0 0 0 0 0 0 0 0 0 0 0 0 0 0 0 0 0 0 0 0 0 0 0 0
0 0 0 0 0 0 0 0 0 0 0 0 0 0 0 0 0 0 0 0 0 0 0 0 0 0 0 0 0 0 0 0 0 0 0 0 0 0 0 0 0 0 0 0
0 0 0 0 0 0 0 0 0 0 0 0 0 0 0 0 0 0 0 0 0 0 0 0 0 0 0 0 0 0 0 0 0 0 0 0 0 0 0 0 0 0 0 0
0 0 0 0 0 0 0 0 0 0 0 0 0 0 0 0 0 0 0 0 0 0 0 0 0 0 0 0 0 0 0 0 0 0 0 0 0 0 0 0 0 0 0 0
0 0 0 0 0 0 0 0 0 0 0 0 0 0 0 0 0 0 0 0 0 0 0 0 0 0 0 0 0 0 0 0 0 0 0 0 0 0 0 0 0 0 0 0
0 0 0 0 0 0 0 0 0 0 0 0 0 0 0 0 0 0 0 0 0 0 0 0 0 0 0 0 0 0 0 0 0 0 0 0 0 0 0 0 0 0 0 0
0 0 0 0 0 0 0 0 0 0 0 0 0 0 0 0 0 0 0 0 0 0 0 0 0 0 0 0 0 0 0 0 0 0 0 0 0 0 0 0 0 0 0 0
0 0 0 0 0 0 0 0 0 0 0 0 0 0 0 0 0 0 0 0 0 0 0 0 0 0 0 0 0 0 0 0 0 0 0 0 0 0 0 0 0 0 0 0
0 0 0 0 0 0 0 0 0 0 0 0 0 0 0 0 0 0 0 0 0 0 0 0 0 0 0 0 0 0 0 0 0 0 0 0 0 0 0 0 0 0 0 0
0 0 0 0 0 0 0 0 0 0 0 0 0 0 0 0 0 0 0 0 0 0 0 0 0 0 0 0 0 0 0 0 0 0 0 0 0 0 0 0 0 0 0 0
Wind_Speed
7 6 4 6 8 7 9 10 10 11 10 14 10 8 7 6 5 5 5 5 5 4 3 3 2 2 2 3 3 2 3 4 4 4 4 5 5 5 5 6 6 6 6 5
4 6 5 7 11 11 10 8 9 8 12 12 7 4 5 6 6 6 7 7 6 5 4 3 3 2 2 2 2 2 3 3 3 4 5 5 5 5 6 6 5 6 6 5
5 3 2 8 11 9 8 8 10 11 13 6 5 8 8 7 7 8 8 7 7 6 5 5 3 2 1 0 1 2 3 3 4 4 5 5 5 5 6 5 5 6 5 6
2 1 7 12 5 6 7 9 9 8 7 7 9 6 5 6 8 8 8 7 7 6 5 4 3 2 1 1 1 2 3 3 4 5 5 5 5 5 5 4 5 5 5 5
4 4 9 10 7 6 7 9 8 10 9 5 2 1 5 7 9 9 8 7 7 6 5 4 3 3 2 1 1 2 3 3 4 5 5 5 5 5 4 5 5 5 5 5
4 4 8 12 7 2 3 7 8 8 9 5 6 2 8 6 8 9 7 6 6 5 4 4 4 3 3 2 2 2 3 3 4 4 5 5 5 4 4 5 5 6 6 5
6 7 11 11 4 4 4 10 6 7 9 8 10 11 7 3 5 7 7 7 6 6 5 5 4 4 4 3 4 4 3 4 4 5 5 5 4 4 5 6 6 6 6 5
4 5 11 6 4 8 11 6 4 7 8 10 12 10 6 5 6 7 7 7 7 6 6 5 5 5 5 5 4 3 4 5 5 5 5 5 6 5 5 6 6 5 5 5
10 12 10 5 9 9 5 6 7 8 9 10 10 10 9 8 8 8 8 8 7 7 6 5 5 6 6 5 4 5 6 6 5 5 4 5 6 6 5 4 4 4 4 4
7 11 11 10 9 9 9 10 11 10 10 9 11 11 9 8 8 8 8 8 7 7 7 6 6 7 7 5 6 7 7 6 5 5 5 4 4 4 5 5 4 4 4 4
9 11 9 10 10 11 10 9 10 10 9 11 11 11 10 9 9 10 9 8 8 8 9 9 7 7 6 7 8 7 7 6 5 5 5 5 4 3 4 3 4 5 4 4
10 12 9 10 10 9 9 10 11 10 10 10 12 13 11 10 10 10 10 9 8 9 9 8 8 8 7 8 9 9 7 7 5 5 5 5 5 3 2 2 5 6 6 6
13 15 12 13 13 13 11 11 12 11 11 11 11 12 11 10 10 10 10 11 13 12 11 9 9 9 9 9 10 9 8 8 6 6 6 6 5 5 4 2 2 5 7 8
14 12 11 12 12 12 11 12 11 9 9 10 10 9 9 9 8 11 14 15 14 11 10 10 10 11 10 10 10 10 9 10 8 7 7 6 6 6 5 5 4 2 4 7
17 12 10 13 13 12 10 8 7 7 7 8 7 7 9 10 12 14 14 11 10 11 11 11 12 11 10 11 11 11 9 7 7 7 7 7 6 6 5 5 4 3 2 3
15 15 17 17 17 17 15 12 10 10 9 7 5 7 9 11 11 10 9 11 12 15 14 13 13 12 11 12 11 9 8 12 10 7 7 7 6 6 6 6 5 5 5 5
16 18 17 17 16 15 15 15 14 14 14 13 11 8 5 5 6 6 8 12 13 13 13 14 14 12 12 13 12 9 8 9 13 8 7 7 7 7 7 7 7 7 7 7
7 7 7 8 9 10 11 11 13 14 15 16 16 12 7 4 6 8 8 8 9 9 11 13 13 12 13 14 12 9 9 8 8 8 8 8 8 8 7 8 8 9 7 6
11 11 10 9 7 6 6 6 7 8 10 13 15 14 11 8 5 5 4 7 10 12 13 13 15 15 15 15 15 9 10 10 9 8 8 9 9 7 7 8 8 8 7 6
13 13 13 12 11 9 8 7 7 6 5 7 11 13 13 11 8 5 4 7 10 10 9 11 14 14 15 15 17 11 11 11 11 10 9 8 8 8 8 8 8 8 8 7
15 15 15 15 13 12 11 10 9 9 9 7 8 10 12 13 11 7 5 7 8 9 9 13 13 13 13 13 17 12 12 12 11 10 10 10 9 9 8 8 8 8 8 8
13 14 16 15 14 14 12 11 11 12 12 11 11 11 11 12 11 9 8 8 9 10 8 9 11 15 16 17 13 13 13 13 12 10 10 10 10 9 9 9 9 8 8 8
12 13 14 15 15 15 15 13 13 12 13 13 13 12 12 11 9 9 10 8 8 10 9 9 13 18 21 16 13 14 15 14 13 12 11 11 10 10 10 10 9 9 8 8
13 13 13 14 13 14 15 14 13 11 12 12 11 12 11 9 9 9 9 11 13 12 9 10 16 19 21 14 13 13 14 13 13 12 12 11 10 10 10 9 9 9 9 10
14 14 14 14 13 12 13 13 13 12 12 10 11 11 10 8 9 9 9 10 12 12 9 11 17 19 16 13 14 14 13 13 13 12 11 10 10 10 10 10 10 9 9 9
14 13 12 12 12 11 11 10 10 10 9 10 10 9 9 8 9 9 9 10 12 11 10 8 9 13 13 13 14 14 13 13 13 12 12 11 12 11 10 10 11 9 8 8
14 12 10 11 10 10 9 9 10 10 10 10 12 11 10 9 9 9 10 9 8 8 8 8 7 9 11 12 13 13 12 11 11 11 11 10 9 9 9 11 9 8 7 7
Wind_Direction
234 240 213 230 238 204 197 205 212 238 242 259 261 254 258 262 259 248 241 233 230 235 252 275 302 331 347 355 17 46 83 96 104 108 106 105 100 96 98 99 103 104 97 85
270 263 244 260 258 241 228 221 225 246 261 253 250 236 246 248 240 238 238 231 226 224 227 240 260 291 339 358 25 84 105 113 116 114 110 107 105 104 100 95 96 95 89 84
257 290 335 272 245 228 224 217 199 221 242 247 226 229 233 232 227 230 232 229 222 216 215 224 236 241 250 310 61 104 119 123 119 116 111 109 111 106 104 102 101 94 86 80
216 152 234 245 240 211 227 246 219 226 240 219 219 230 235 219 215 228 228 223 217 212 214 222 224 222 204 163 118 125 127 128 131 128 120 114 109 105 101 99 99 95 88 80
158 220 267 287 268 207 210 261 231 221 240 235 195 24 287 232 209 216 217 211 209 205 203 206 212 205 171 160 149 145 148 145 142 136 128 122 117 110 102 103 97 93 91 82
160 203 249 250 256 185 145 272 252 211 229 196 134 194 262 244 207 214 212 206 203 195 188 200 212 183 168 187 187 188 175 159 145 136 133 131 125 113 105 110 107 101 88 76
206 226 258 256 259 133 187 245 255 210 215 180 188 214 230 215 206 205 202 201 191 181 190 207 196 172 182 199 211 202 163 143 136 136 136 133 123 115 118 114 107 101 94 78
194 213 255 255 159 190 223 238 241 222 212 201 218 236 236 226 222 204 196 193 182 182 201 205 183 175 191 212 212 170 147 140 138 138 138 134 126 120 120 120 114 111 106 91
200 220 237 230 215 233 235 237 240 228 226 212 221 235 232 226 219 205 197 192 183 185 196 201 191 184 196 209 179 156 147 145 141 133 125 133 136 135 128 126 127 129 125 118
257 263 259 261 260 258 240 233 243 237 232 213 217 229 226 221 211 203 198 193 184 180 191 205 202 199 203 183 165 155 154 152 146 139 132 131 136 144 145 148 144 145 146 144
261 270 282 276 261 258 263 258 257 251 234 221 220 228 220 214 209 203 198 191 182 187 196 205 197 198 194 176 164 161 161 159 154 151 146 143 138 143 156 166 169 163 168 161
261 263 252 259 260 268 272 271 265 257 250 232 217 226 219 214 210 200 197 189 188 195 200 202 192 195 189 179 172 166 167 168 165 159 156 152 144 120 91 153 179 178 168 162
271 279 273 266 269 267 262 263 263 252 243 242 230 223 217 214 208 197 194 192 197 199 199 195 191 196 190 181 178 177 177 175 169 167 166 166 165 160 153 123 135 172 182 183
302 297 289 283 281 280 273 267 267 261 250 240 236 222 213 213 203 197 202 203 199 193 191 190 192 200 193 182 182 184 180 180 176 177 176 175 177 176 171 168 172 189 204 206
351 349 325 317 319 317 309 303 296 286 276 260 238 219 210 207 208 211 209 195 183 187 191 190 196 202 187 182 184 185 182 182 181 179 179 178 177 177 179 184 189 192 192 211
349 3 9 7 1 355 354 351 339 323 313 297 272 241 224 217 216 213 195 178 180 195 196 193 200 199 183 182 185 187 190 192 182 179 178 178 179 182 188 195 203 209 218 217
355 0 359 358 358 1 4 3 1 354 345 336 322 300 268 231 220 211 197 193 198 202 196 195 199 189 182 184 185 188 190 194 189 183 186 186 187 193 197 200 208 217 228 220
324 322 327 326 333 338 345 354 355 352 347 338 333 332 316 259 233 226 212 198 199 205 204 202 193 182 183 186 187 188 188 190 189 190 191 194 196 199 200 205 213 222 234 225
307 303 301 297 295 298 309 320 329 331 329 330 328 324 318 303 274 255 219 192 199 214 216 204 193 186 188 190 186 187 189 192 192 194 195 196 199 202 203 207 215 222 228 221
302 301 297 289 282 276 275 274 277 282 291 305 312 312 311 305 295 276 235 220 221 224 214 196 194 198 197 193 189 191 194 197 199 200 199 199 201 204 206 211 216 221 224 224
305 304 303 299 292 283 274 265 259 261 262 260 271 283 289 291 286 274 254 252 247 232 217 199 197 201 200 195 192 195 197 198 200 201 202 204 206 208 209 212 216 219 221 223
302 303 304 302 298 293 286 275 263 258 255 254 256 262 270 277 280 274 256 252 255 238 222 209 206 203 199 194 195 197 199 201 203 203 204 204 205 208 211 212 215 219 220 220
298 299 301 301 300 297 293 286 277 270 264 258 257 258 258 261 265 266 270 261 253 244 229 219 213 203 194 194 198 199 201 202 203 204 205 206 207 209 212 214 214 215 216 218
297 298 299 299 300 298 293 290 285 279 274 270 264 261 261 264 265 259 258 260 255 250 239 229 218 206 195 200 199 200 202 203 204 205 207 209 210 211 212 214 216 216 216 218
295 296 298 301 301 297 293 291 290 285 281 278 273 267 264 260 263 267 263 258 255 251 244 234 222 210 203 205 201 200 201 202 203 204 206 207 210 211 213 214 216 217 216 218
295 294 292 288 287 286 288 287 285 284 284 284 282 276 270 266 263 264 263 259 256 250 242 236 222 211 210 207 203 200 200 201 201 204 205 207 211 211 214 216 217 217 217 217
296 293 291 291 289 285 284 284 282 281 279 279 280 280 277 275 270 266 262 260 258 251 242 233 221 210 207 204 200 198 198 197 197 200 202 203 204 207 212 213 213 210 209 208